DW7999 Weather Reports


time (UTC)temp
C
wind
direction
speed
KPH
gust
KPH
rain 1hr
cm
rain 24hr
cm
rain mn
cm
humidity
%
barometer
mb
20260903043558 26 254 4.8 12.9 0.00 0.00 0.00 81 1014.1
20260903043552 26 252 0.0 0.0 0.00 0.00 0.00 82 1011.2
20260903043209 26 216 4.8 12.9 0.00 0.00 0.00 81 1014.0
20260903043051 26 252 0.0 0.0 0.00 0.00 0.00 82 1011.2
20260903042557 26 221 4.8 12.9 0.00 0.00 0.00 81 1014.0
20260903042549 26 252 0.0 0.0 0.00 0.00 0.00 82 1011.2
20260903042059 26 244 4.8 11.3 0.00 0.00 0.00 81 1014.1
20260903042048 26 252 0.0 0.0 0.00 0.00 0.00 81 1011.2
20260903041608 26 201 3.2 16.1 0.00 0.00 0.00 80 1014.1
20260903041548 26 252 0.0 0.0 0.00 0.00 0.00 81 1011.4
20260903041057 27 245 6.4 16.1 0.00 0.00 0.00 80 1014.2
20260903041046 27 252 0.0 0.0 0.00 0.00 0.00 81 1011.3
20260903040558 27 234 6.4 14.5 0.00 0.00 0.00 80 1014.0
20260903040546 27 211 0.0 0.0 0.00 0.00 0.00 80 1011.2
20260903040108 27 227 4.8 12.9 0.00 0.00 0.00 80 1013.9
20260903040058 27 211 0.0 0.0 0.00 0.00 0.00 80 1011.1
20260903035559 27 225 4.8 14.5 0.00 0.00 0.00 80 1013.8
20260903035544 27 211 0.0 0.0 0.00 0.00 0.00 80 1011.1
20260903035058 27 239 4.8 16.1 0.00 0.00 0.00 80 1013.9
20260903035044 27 211 0.0 0.0 0.00 0.00 0.00 80 1011.0
20260903034606 27 200 4.8 19.3 0.00 0.00 0.00 79 1013.7
20260903034545 27 211 0.0 0.0 0.00 0.00 0.00 80 1011.0
20260903034058 27 232 4.8 19.3 0.00 0.00 0.00 79 1013.7
20260903034044 27 211 0.0 0.0 0.00 0.00 0.00 79 1011.0
20260903033600 27 222 8.0 17.7 0.00 0.00 0.00 79 1013.6
20260903033543 27 240 0.0 0.0 0.00 0.00 0.00 79 1010.8
20260903033107 27 240 4.8 22.5 0.00 0.00 0.00 79 1013.6
20260903033045 27 220 0.0 0.0 0.00 0.00 0.00 79 1010.8
20260903032601 27 213 6.4 22.5 0.00 0.00 0.00 79 1013.5
20260903032543 27 220 0.0 0.0 0.00 0.00 0.00 79 1010.8
20260903032104 27 227 6.4 16.1 0.00 0.00 0.00 79 1013.3
20260903032042 27 220 0.0 0.0 0.00 0.00 0.00 79 1010.5
20260903031604 27 200 6.4 16.1 0.00 0.00 0.00 78 1013.3
20260903031543 27 178 0.0 0.0 0.00 0.00 0.00 79 1010.5
20260903031102 27 237 4.8 14.5 0.00 0.00 0.00 78 1013.2
20260903031042 27 178 0.0 0.0 0.00 0.00 0.00 79 1010.4
20260903030559 27 204 4.8 16.1 0.00 0.00 0.00 78 1013.1
20260903030543 27 179 0.0 0.0 0.00 0.00 0.00 79 1010.3
20260903030104 27 207 4.8 16.1 0.00 0.00 0.00 78 1013.1
20260903030042 27 179 0.0 0.0 0.00 0.00 0.00 79 1010.4
20260903025557 27 229 6.4 12.9 0.00 0.00 0.00 78 1013.3
20260903025521 27 179 0.0 0.0 0.00 0.00 0.00 79 1010.5
20260903025100 27 202 6.4 12.9 0.00 0.00 0.00 78 1013.5
20260903025019 27 179 0.0 0.0 0.00 0.00 0.00 79 1010.6
20260903024606 27 183 4.8 14.5 0.00 0.00 0.00 78 1013.5
20260903024519 27 182 0.0 0.0 0.00 0.00 0.00 78 1010.7
20260903024102 27 196 6.4 14.5 0.00 0.00 0.00 78 1013.7
20260903024019 27 182 0.0 0.0 0.00 0.00 0.00 78 1010.9
20260903023601 27 185 6.4 14.5 0.00 0.00 0.00 77 1013.8
20260903023519 27 182 0.0 0.0 0.00 0.00 0.00 78 1011.1
20260903023103 27 191 4.8 11.3 0.00 0.00 0.00 77 1013.9
20260903023018 27 182 0.0 0.0 0.00 0.00 0.00 78 1011.1
20260903022602 27 205 3.2 11.3 0.00 0.00 0.00 77 1014.0
20260903022519 27 182 0.0 0.0 0.00 0.00 0.00 78 1011.2
20260903022057 27 194 4.8 11.3 0.00 0.00 0.00 77 1014.0
20260903022018 27 182 0.0 0.0 0.00 0.00 0.00 78 1011.1
20260903021602 27 227 3.2 12.9 0.00 0.00 0.00 77 1014.0
20260903021520 27 182 0.0 0.0 0.00 0.00 0.00 77 1011.2
20260903021101 27 225 4.8 16.1 0.00 0.00 0.00 77 1014.1
20260903021019 27 182 0.0 0.0 0.00 0.00 0.00 77 1011.2
20260903020559 27 191 8.0 16.1 0.00 0.00 0.00 76 1014.1
20260903020518 27 182 0.0 0.0 0.00 0.00 0.00 77 1011.1
20260903020018 27 192 0.0 0.0 0.00 0.00 0.00 77 1011.2
20260903015600 27 210 6.4 12.9 0.00 0.00 0.00 76 1014.1
20260903015517 27 192 0.0 0.0 0.00 0.00 0.00 76 1011.2
20260903015100 27 199 6.4 12.9 0.00 0.00 0.00 75 1014.1
20260903015017 27 192 0.0 0.0 0.00 0.00 0.00 76 1011.2
20260903014604 27 214 6.4 12.9 0.00 0.00 0.00 75 1014.2
20260903014517 27 192 0.0 0.0 0.00 0.00 0.00 76 1011.3
20260903014100 27 211 4.8 11.3 0.00 0.00 0.00 75 1014.2
20260903014017 27 225 0.0 0.0 0.00 0.00 0.00 75 1011.2
20260903013600 27 203 4.8 9.7 0.00 0.00 0.00 75 1014.2
20260903013517 27 225 0.0 0.0 0.00 0.00 0.00 76 1011.2
20260903013108 28 200 4.8 12.9 0.00 0.00 0.00 75 1014.3
20260903013018 28 225 0.0 0.0 0.00 0.00 0.00 75 1011.2
20260903012559 28 201 4.8 12.9 0.00 0.00 0.00 74 1014.2
20260903012516 28 225 0.0 0.0 0.00 0.00 0.00 75 1011.3
20260903012101 28 217 4.8 12.9 0.00 0.00 0.00 74 1014.3
20260903012020 28 225 0.0 0.0 0.00 0.00 0.00 74 1011.3
20260903011602 28 201 4.8 9.7 0.00 0.00 0.00 73 1014.3
20260903011517 28 225 0.0 0.0 0.00 0.00 0.00 74 1011.3
20260903011101 28 194 4.8 9.7 0.00 0.00 0.00 73 1014.2
20260903011016 28 225 0.0 0.0 0.00 0.00 0.00 74 1011.2
20260903010558 28 200 4.8 9.7 0.00 0.00 0.00 73 1014.2
20260903010515 28 225 0.0 0.0 0.00 0.00 0.00 73 1011.1
20260903010106 28 196 3.2 8.0 0.00 0.00 0.00 73 1014.2
20260903010036 28 225 0.0 0.0 0.00 0.00 0.00 73 1011.0
20260903005600 28 224 3.2 8.0 0.00 0.00 0.00 72 1014.1
20260903005515 28 225 0.0 0.0 0.00 0.00 0.00 73 1011.0
20260903005100 28 207 3.2 8.0 0.00 0.00 0.00 72 1014.1
20260903005014 28 225 0.0 0.0 0.00 0.00 0.00 72 1011.0
20260903004606 28 207 3.2 8.0 0.00 0.00 0.00 71 1014.1
20260903004514 28 225 0.0 0.0 0.00 0.00 0.00 72 1011.0
20260903004102 28 206 3.2 11.3 0.00 0.00 0.00 70 1014.1
20260903004014 28 225 0.0 0.0 0.00 0.00 0.00 71 1010.9
20260903003559 29 209 4.8 11.3 0.00 0.00 0.00 70 1014.1
20260903003515 29 225 0.0 0.0 0.00 0.00 0.00 70 1011.0
20260903003104 29 229 4.8 11.3 0.00 0.00 0.00 69 1014.1
20260903003014 29 225 0.0 0.0 0.00 0.00 0.00 70 1011.0
20260903002559 29 212 4.8 9.7 0.00 0.00 0.00 69 1014.1
20260903002514 29 225 0.0 0.0 0.00 0.00 0.00 70 1011.0
20260903002118 29 211 4.8 11.3 0.00 0.00 0.00 68 1014.2
20260903002014 29 225 0.0 0.0 0.00 0.00 0.00 69 1011.1
20260903001602 29 217 4.8 12.9 0.00 0.00 0.00 68 1014.1
20260903001520 29 225 0.0 0.0 0.00 0.00 0.00 69 1011.0
20260903001100 29 213 4.8 14.5 0.00 0.00 0.00 67 1014.1
20260903001017 29 225 0.0 0.0 0.00 0.00 0.00 68 1011.0
20260903000600 30 218 6.4 17.7 0.00 0.00 0.00 67 1014.1
20260903000518 29 225 0.0 0.0 0.00 0.00 0.00 68 1011.0
20260903000110 30 213 4.8 17.7 0.00 0.00 0.00 67 1014.2
20260903000015 30 225 0.0 0.0 0.00 0.00 0.00 68 1011.0
20260902235600 30 228 3.2 12.9 0.00 0.00 0.00 67 1014.2
20260902235513 30 225 0.0 0.0 0.00 0.00 0.00 67 1011.1
20260902235058 30 219 4.8 17.7 0.00 0.00 0.00 66 1014.1
20260902235016 30 225 0.0 0.0 0.00 0.00 0.00 66 1011.1
20260902234617 30 235 4.8 25.7 0.00 0.00 0.00 65 1014.1
20260902234516 30 225 0.0 0.0 0.00 0.00 0.00 66 1011.0
20260902234058 30 223 6.4 25.7 0.00 0.00 0.00 65 1014.0
20260902234015 30 230 0.0 0.0 0.00 0.00 0.00 65 1011.0
20260902233601 30 212 6.4 16.1 0.00 0.00 0.00 65 1014.0
20260902233513 30 226 0.0 0.0 0.00 0.00 0.00 65 1010.9
20260902233105 30 238 6.4 16.1 0.00 0.00 0.00 65 1014.0
20260902233013 30 226 0.0 0.0 0.00 0.00 0.00 65 1011.0
20260902232559 30 192 4.8 14.5 0.00 0.00 0.00 65 1014.0
20260902232513 30 227 0.0 0.0 0.00 0.00 0.00 65 1011.0
20260902232058 30 244 6.4 17.7 0.00 0.00 0.00 64 1014.1
20260902232012 30 227 0.0 0.0 0.00 0.00 0.00 65 1011.0
20260902231617 31 209 6.4 17.7 0.00 0.00 0.00 64 1014.1
20260902231529 30 225 0.0 0.0 0.00 0.00 0.00 65 1010.9
20260902231100 31 210 6.4 14.5 0.00 0.00 0.00 65 1014.1
20260902231013 31 225 0.0 0.0 0.00 0.00 0.00 65 1011.0
20260902230603 31 225 6.4 19.3 0.00 0.00 0.00 64 1014.1
20260902230511 31 213 0.0 0.0 0.00 0.00 0.00 64 1011.0
20260902230108 31 246 6.4 20.9 0.00 0.00 0.00 63 1014.1
20260902230012 31 213 0.0 0.0 0.00 0.00 0.00 63 1011.0
20260902225600 31 189 6.4 20.9 0.00 0.00 0.00 62 1014.1
20260902225512 31 205 0.0 0.0 0.00 0.00 0.00 62 1010.9
20260902225058 31 216 8.0 22.5 0.00 0.00 0.00 62 1014.0
20260902225014 31 236 0.0 0.0 0.00 0.00 0.00 62 1010.9
20260902224612 31 220 9.7 22.5 0.00 0.00 0.00 60 1014.0
20260902224512 31 210 0.0 0.0 0.00 0.00 0.00 61 1010.8
20260902224101 31 244 6.4 20.9 0.00 0.00 0.00 61 1013.9
20260902224013 31 205 0.0 0.0 0.00 0.00 0.00 62 1010.8
20260902223558 31 220 8.0 20.9 0.00 0.00 0.00 61 1013.9
20260902223511 31 211 0.0 0.0 0.00 0.00 0.00 61 1010.7
20260902223113 32 202 0.0 0.0 0.00 0.00 0.00 61 1010.7
20260902223104 32 209 8.0 20.9 0.00 0.00 0.00 60 1013.9
20260902222600 32 205 6.4 24.1 0.00 0.00 0.00 61 1014.0
20260902222509 32 202 0.0 0.0 0.00 0.00 0.00 61 1010.8
20260902222100 32 203 6.4 24.1 0.00 0.00 0.00 61 1014.0
20260902222012 32 213 0.0 0.0 0.00 0.00 0.00 61 1010.8
20260902221608 32 227 8.0 24.1 0.00 0.00 0.00 59 1014.1
20260902221509 32 204 0.0 0.0 0.00 0.00 0.00 60 1010.9
20260902221100 32 216 8.0 20.9 0.00 0.00 0.00 60 1014.1
20260902221012 32 209 0.0 0.0 0.00 0.00 0.00 61 1010.8
20260902220600 32 234 6.4 20.9 0.00 0.00 0.00 59 1014.1
20260902220510 32 209 0.0 0.0 0.00 0.00 0.00 60 1010.8
20260902220105 32 243 6.4 20.9 0.00 0.00 0.00 60 1014.1
20260902220020 32 205 0.0 0.0 0.00 0.00 0.00 61 1010.9
20260902215609 32 206 0.0 0.0 0.00 0.00 0.00 60 1010.8
20260902215558 32 239 8.0 24.1 0.00 0.00 0.00 59 1014.0
20260902215059 32 227 0.0 0.0 0.00 0.00 0.00 59 1010.9
20260902214608 32 270 0.0 0.0 0.00 0.00 0.00 58 1011.0
20260902214603 32 237 9.7 25.7 0.00 0.00 0.00 58 1014.1
20260902214101 32 210 9.7 27.4 0.00 0.00 0.00 57 1014.2
20260902214058 32 214 0.0 0.0 0.00 0.00 0.00 58 1011.0
20260902213600 32 184 12.9 27.4 0.00 0.00 0.00 56 1014.2
20260902213557 32 213 0.0 0.0 0.00 0.00 0.00 57 1011.0
20260902213127 32 211 9.7 20.9 0.00 0.00 0.00 56 1014.3
20260902213057 32 228 0.0 0.0 0.00 0.00 0.00 57 1011.1
20260902212656 32 231 0.0 0.0 0.00 0.00 0.00 57 1011.2
20260902212601 32 202 8.0 20.9 0.00 0.00 0.00 57 1014.2
20260902212101 32 207 11.3 25.7 0.00 0.00 0.00 57 1014.3
20260902212035 32 210 0.0 0.0 0.00 0.00 0.00 57 1011.2
20260902211629 32 232 8.0 25.7 0.00 0.00 0.00 57 1014.4
20260902211538 32 228 0.0 0.0 0.00 0.00 0.00 58 1011.2
20260902211100 33 227 9.7 24.1 0.00 0.00 0.00 58 1014.5
20260902211038 33 277 0.0 0.0 0.00 0.00 0.00 58 1011.3
20260902210559 33 242 11.3 24.1 0.00 0.00 0.00 57 1014.4
20260902210534 33 211 0.0 0.0 0.00 0.00 0.00 58 1011.3
20260902210106 33 224 9.7 25.7 0.00 0.00 0.00 58 1014.4
20260902210034 33 220 0.0 0.0 0.00 0.00 0.00 59 1011.3
20260902205557 33 227 11.3 25.7 0.00 0.00 0.00 59 1014.4
20260902205533 33 240 0.0 0.0 0.00 0.00 0.00 59 1011.3
20260902205101 33 192 9.7 25.7 0.00 0.00 0.00 59 1014.5
20260902205033 33 213 0.0 0.0 0.00 0.00 0.00 59 1011.4
20260902204606 33 207 9.7 25.7 0.00 0.00 0.00 58 1014.5
20260902204531 33 172 0.0 0.0 0.00 0.00 0.00 59 1011.4
20260902204101 33 240 9.7 30.6 0.00 0.00 0.00 58 1014.5
20260902204031 33 227 0.0 0.0 0.00 0.00 0.00 59 1011.4
20260902203603 32 212 11.3 30.6 0.00 0.00 0.00 57 1014.6
20260902203535 33 214 0.0 0.0 0.00 0.00 0.00 59 1011.5
20260902203109 33 229 8.0 19.3 0.00 0.00 0.00 59 1014.7
20260902203031 33 213 0.0 0.0 0.00 0.00 0.00 59 1011.5
20260902202600 33 243 8.0 19.3 0.00 0.00 0.00 59 1014.8
20260902202531 33 199 0.0 0.0 0.00 0.00 0.00 59 1011.6
20260902202130 33 217 0.0 0.0 0.00 0.00 0.00 60 1011.7
20260902202057 33 228 8.0 19.3 0.00 0.00 0.00 59 1014.8
20260902201610 33 223 8.0 24.1 0.00 0.00 0.00 59 1014.9
20260902201536 33 191 0.0 0.0 0.00 0.00 0.00 60 1011.8
20260902201058 33 203 6.4 24.1 0.00 0.00 0.00 60 1014.9
20260902201028 33 202 0.0 0.0 0.00 0.00 0.00 61 1011.8
20260902200559 33 230 9.7 24.1 0.00 0.00 0.00 59 1014.9
20260902200528 33 181 0.0 0.0 0.00 0.00 0.00 60 1011.9
20260902200137 33 196 9.7 24.1 0.00 0.00 0.00 59 1015.0
20260902200027 33 205 0.0 0.0 0.00 0.00 0.00 60 1012.0
20260902195601 33 199 6.4 22.5 0.00 0.00 0.00 59 1014.9
20260902195526 33 225 0.0 0.0 0.00 0.00 0.00 60 1012.1
20260902195100 33 206 6.4 22.5 0.00 0.00 0.00 60 1014.9
20260902195025 33 242 0.0 0.0 0.00 0.00 0.00 61 1012.1
20260902194603 33 215 8.0 22.5 0.00 0.00 0.00 60 1014.9
20260902194525 33 205 0.0 0.0 0.00 0.00 0.00 61 1012.0
20260902194104 32 243 8.0 22.5 0.00 0.00 0.00 61 1015.0
20260902194025 32 225 0.0 0.0 0.00 0.00 0.00 61 1012.1
20260902193559 32 198 9.7 22.5 0.00 0.00 0.00 60 1015.1
20260902193525 32 221 0.0 0.0 0.00 0.00 0.00 61 1012.2
20260902193107 32 186 6.4 17.7 0.00 0.00 0.00 62 1015.3
20260902193024 32 248 0.0 0.0 0.00 0.00 0.00 61 1012.3
20260902192600 32 242 8.0 20.9 0.00 0.00 0.00 59 1015.3
20260902192524 32 242 0.0 0.0 0.00 0.00 0.00 61 1012.3
20260902192100 32 226 6.4 22.5 0.00 0.00 0.00 58 1015.3
20260902192023 32 241 0.0 0.0 0.00 0.00 0.00 59 1012.4
20260902191609 33 240 8.0 22.5 0.00 0.00 0.00 57 1015.4
20260902191522 33 232 0.0 0.0 0.00 0.00 0.00 57 1012.4
20260902191058 33 252 8.0 22.5 0.00 0.00 0.00 56 1015.4
20260902191022 33 234 0.0 0.0 0.00 0.00 0.00 59 1012.5
20260902190558 33 229 6.4 17.7 0.00 0.00 0.00 59 1015.5
20260902190522 33 197 0.0 0.0 0.00 0.00 0.00 59 1012.5
20260902190115 33 217 8.0 24.1 0.00 0.00 0.00 60 1015.5
20260902190020 33 232 0.0 0.0 0.00 0.00 0.00 61 1012.6
20260902185602 33 247 11.3 24.1 0.00 0.00 0.00 60 1015.6
20260902185520 33 223 0.0 0.0 0.00 0.00 0.00 59 1012.6
20260902185102 33 205 8.0 19.3 0.00 0.00 0.00 59 1015.5
20260902185020 33 219 0.0 0.0 0.00 0.00 0.00 59 1012.6
20260902184605 33 207 9.7 19.3 0.00 0.00 0.00 59 1015.5
20260902184517 33 218 0.0 0.0 0.00 0.00 0.00 59 1012.6
20260902184101 33 232 6.4 19.3 0.00 0.00 0.00 62 1015.4
20260902184017 33 221 0.0 0.0 0.00 0.00 0.00 62 1012.7
20260902183605 33 202 9.7 17.7 0.00 0.00 0.00 59 1015.5
20260902183516 33 224 0.0 0.0 0.00 0.00 0.00 60 1012.7
20260902183119 33 218 6.4 17.7 0.00 0.00 0.00 59 1015.5
20260902183016 33 218 0.0 0.0 0.00 0.00 0.00 59 1012.8
20260902182559 33 252 8.0 19.3 0.00 0.00 0.00 61 1015.5
20260902182515 32 246 0.0 0.0 0.00 0.00 0.00 60 1012.9
20260902182058 33 232 6.4 19.3 0.00 0.00 0.00 60 1015.6
20260902182014 33 213 0.0 0.0 0.00 0.00 0.00 62 1012.8
20260902181605 32 179 6.4 16.1 0.00 0.00 0.00 63 1015.5
20260902181513 32 246 0.0 0.0 0.00 0.00 0.00 63 1012.9
20260902181059 32 261 6.4 17.7 0.00 0.00 0.00 63 1015.5
20260902181013 32 254 0.0 0.0 0.00 0.00 0.00 61 1013.0
20260902180607 32 226 6.4 17.7 0.00 0.00 0.00 63 1015.7
20260902180512 32 239 0.0 0.0 0.00 0.00 0.00 64 1013.1
20260902180131 32 274 8.0 17.7 0.00 0.00 0.00 61 1015.6
20260902180013 32 236 0.0 0.0 0.00 0.00 0.00 62 1013.1
20260902175601 32 240 8.0 16.1 0.00 0.00 0.00 61 1015.7
20260902175513 32 214 0.0 0.0 0.00 0.00 0.00 62 1013.2
20260902175101 33 252 6.4 12.9 0.00 0.00 0.00 63 1015.8
20260902175012 33 180 0.0 0.0 0.00 0.00 0.00 63 1013.2
20260902174611 32 190 3.2 24.1 0.00 0.00 0.00 61 1015.8
20260902174513 32 289 0.0 0.0 0.00 0.00 0.00 61 1013.2
20260902174100 32 261 4.8 24.1 0.00 0.00 0.00 62 1015.9
20260902174014 32 221 0.0 0.0 0.00 0.00 0.00 62 1013.3
20260902173558 32 209 11.3 24.1 0.00 0.00 0.00 62 1015.9
20260902173510 32 207 0.0 0.0 0.00 0.00 0.00 62 1013.3
20260902173105 32 240 4.8 16.1 0.00 0.00 0.00 64 1016.0
20260902173021 32 237 0.0 0.0 0.00 0.00 0.00 65 1013.3
20260902172600 32 209 4.8 14.5 0.00 0.00 0.00 64 1016.1
20260902172510 32 237 0.0 0.0 0.00 0.00 0.00 64 1013.3
20260902172101 32 238 6.4 14.5 0.00 0.00 0.00 64 1016.1
20260902172007 32 232 0.0 0.0 0.00 0.00 0.00 66 1013.4
20260902171607 32 231 6.4 16.1 0.00 0.00 0.00 64 1016.1
20260902171507 32 161 0.0 0.0 0.00 0.00 0.00 64 1013.7
20260902171100 31 226 6.4 16.1 0.00 0.00 0.00 66 1016.1
20260902171005 31 256 0.0 0.0 0.00 0.00 0.00 67 1013.7
20260902170600 31 263 8.0 19.3 0.00 0.00 0.00 65 1016.1
20260902170505 31 259 0.0 0.0 0.00 0.00 0.00 67 1013.7
20260902170107 31 233 6.4 19.3 0.00 0.00 0.00 66 1016.1
20260902170008 31 202 0.0 0.0 0.00 0.00 0.00 67 1013.6
20260902165601 31 218 8.0 22.5 0.00 0.00 0.00 68 1016.1
20260902165505 31 217 0.0 0.0 0.00 0.00 0.00 69 1013.6
20260902165059 30 219 6.4 22.5 0.00 0.00 0.00 68 1016.3
20260902165005 30 200 0.0 0.0 0.00 0.00 0.00 68 1013.7
20260902164606 31 222 8.0 20.9 0.00 0.00 0.00 66 1016.4
20260902164505 31 209 0.0 0.0 0.00 0.00 0.00 66 1014.0
20260902164058 31 238 6.4 17.7 0.00 0.00 0.00 66 1016.5
20260902164004 31 180 0.0 0.0 0.00 0.00 0.00 66 1014.3
20260902163558 31 257 8.0 17.7 0.00 0.00 0.00 66 1016.6
20260902163504 31 161 0.0 0.0 0.00 0.00 0.00 67 1014.2
20260902163105 32 223 6.4 14.5 0.00 0.00 0.00 66 1016.5
20260902163003 31 236 0.0 0.0 0.00 0.00 0.00 70 1014.2
20260902162600 31 217 6.4 14.5 0.00 0.00 0.00 67 1016.5
20260902162502 31 263 0.0 0.0 0.00 0.00 0.00 68 1014.2
20260902162058 31 257 4.8 16.1 0.00 0.00 0.00 66 1016.5
20260902161611 31 238 0.0 0.0 0.00 0.00 0.00 67 1014.2
20260902161609 31 192 6.4 16.1 0.00 0.00 0.00 66 1016.6
20260902161058 31 264 4.8 14.5 0.00 0.00 0.00 67 1016.5
20260902160600 31 222 6.4 14.5 0.00 0.00 0.00 68 1016.6
20260902160557 31 183 0.0 0.0 0.00 0.00 0.00 69 1014.2
20260902160108 31 197 6.4 11.3 0.00 0.00 0.00 68 1016.5
20260902160056 31 176 0.0 0.0 0.00 0.00 0.00 69 1014.2
20260902155558 31 240 3.2 11.3 0.00 0.00 0.00 69 1016.5
20260902155554 31 320 0.0 0.0 0.00 0.00 0.00 69 1014.2
20260902155103 30 326 0.0 0.0 0.00 0.00 0.00 71 1014.3
20260902155101 30 277 3.2 16.1 0.00 0.00 0.00 71 1016.5
20260902154619 30 247 3.2 17.7 0.00 0.00 0.00 69 1016.6
20260902154551 30 342 0.0 0.0 0.00 0.00 0.00 70 1014.3
20260902154057 30 221 3.2 17.7 0.00 0.00 0.00 68 1016.6
20260902154052 30 241 0.0 0.0 0.00 0.00 0.00 69 1014.3
20260902153600 30 229 8.0 17.7 0.00 0.00 0.00 69 1016.5
20260902153552 30 270 0.0 0.0 0.00 0.00 0.00 70 1014.2
20260902153106 30 212 6.4 16.1 0.00 0.00 0.00 69 1016.5
20260902153049 30 270 0.0 0.0 0.00 0.00 0.00 70 1014.1
20260902152600 30 250 6.4 11.3 0.00 0.00 0.00 72 1016.4
20260902152548 30 265 0.0 0.0 0.00 0.00 0.00 73 1014.1
20260902152100 30 267 3.2 14.5 0.00 0.00 0.00 70 1016.5
20260902152057 30 260 0.0 0.0 0.00 0.00 0.00 70 1014.1
20260902151601 30 228 3.2 14.5 0.00 0.00 0.00 70 1016.5
20260902151545 30 225 0.0 0.0 0.00 0.00 0.00 71 1014.1
20260902151059 30 219 6.4 17.7 0.00 0.00 0.00 70 1016.5
20260902151044 30 179 0.0 0.0 0.00 0.00 0.00 70 1014.0
20260902150557 29 188 6.4 17.7 0.00 0.00 0.00 75 1016.4
20260902150542 29 215 0.0 0.0 0.00 0.00 0.00 75 1014.0
20260902150104 29 241 3.2 17.7 0.00 0.00 0.00 74 1016.4
20260902150042 29 215 0.0 0.0 0.00 0.00 0.00 74 1013.9
20260902145559 29 217 6.4 17.7 0.00 0.00 0.00 75 1016.3
20260902145541 29 215 0.0 0.0 0.00 0.00 0.00 75 1013.8
20260902145100 29 234 6.4 17.7 0.00 0.00 0.00 74 1016.3
20260902145040 29 194 0.0 0.0 0.00 0.00 0.00 75 1013.8
20260902144721 29 229 4.8 16.1 0.00 0.00 0.00 74 1016.2
20260902144539 29 182 0.0 0.0 0.00 0.00 0.00 75 1013.8
20260902144058 28 199 4.8 16.1 0.00 0.00 0.00 74 1016.0
20260902144038 28 239 0.0 0.0 0.00 0.00 0.00 74 1013.7
20260902143600 28 221 6.4 16.1 0.00 0.00 0.00 76 1016.1
20260902143537 28 240 0.0 0.0 0.00 0.00 0.00 77 1013.7
20260902143103 28 211 4.8 16.1 0.00 0.00 0.00 77 1016.1
20260902143036 28 240 0.0 0.0 0.00 0.00 0.00 77 1013.8
20260902142601 28 238 4.8 14.5 0.00 0.00 0.00 77 1016.1
20260902142534 28 250 0.0 0.0 0.00 0.00 0.00 77 1013.8
20260902142102 28 225 6.4 14.5 0.00 0.00 0.00 78 1016.0
20260902142032 28 265 0.0 0.0 0.00 0.00 0.00 80 1013.7
20260902141612 27 255 6.4 17.7 0.00 0.00 0.00 77 1016.0
20260902141530 27 200 0.0 0.0 0.00 0.00 0.00 78 1013.6
20260902141057 27 240 4.8 17.7 0.00 0.00 0.00 78 1016.0
20260902141030 27 200 0.0 0.0 0.00 0.00 0.00 78 1013.7
20260902140600 27 232 6.4 14.5 0.00 0.00 0.00 78 1016.0
20260902140530 27 200 0.0 0.0 0.00 0.00 0.00 79 1013.9
20260902140105 27 227 6.4 16.1 0.00 0.00 0.00 80 1016.0
20260902140033 27 222 0.0 0.0 0.00 0.00 0.00 80 1013.9
20260902135558 27 207 4.8 16.1 0.00 0.00 0.00 80 1016.0
20260902135528 27 215 0.0 0.0 0.00 0.00 0.00 81 1013.9
20260902135100 27 216 6.4 12.9 0.00 0.00 0.00 79 1016.0
20260902135025 27 215 0.0 0.0 0.00 0.00 0.00 80 1013.9
20260902134604 27 223 6.4 16.1 0.00 0.00 0.00 80 1015.9
20260902134524 27 215 0.0 0.0 0.00 0.00 0.00 81 1013.8
20260902134057 27 224 4.8 16.1 0.00 0.00 0.00 81 1015.9
20260902134023 27 215 0.0 0.0 0.00 0.00 0.00 81 1013.7
20260902133600 26 195 8.0 16.1 0.00 0.00 0.00 81 1015.9
20260902133522 26 214 0.0 0.0 0.00 0.00 0.00 81 1013.6
20260902133104 26 223 4.8 12.9 0.00 0.00 0.00 81 1015.8
20260902133021 26 212 0.0 0.0 0.00 0.00 0.00 83 1013.6
20260902132603 26 220 6.4 17.7 0.00 0.00 0.00 82 1015.8
20260902132526 26 214 0.0 0.0 0.00 0.00 0.00 83 1013.8
20260902132100 26 220 6.4 17.7 0.00 0.00 0.00 82 1015.8
20260902132017 26 213 0.0 0.0 0.00 0.00 0.00 83 1013.9
20260902131608 26 235 4.8 17.7 0.00 0.00 0.00 83 1015.9
20260902131527 26 212 0.0 0.0 0.00 0.00 0.00 84 1014.0
20260902131100 26 257 6.4 17.7 0.00 0.00 0.00 84 1015.9
20260902131015 26 213 0.0 0.0 0.00 0.00 0.00 85 1013.9
20260902130600 26 192 6.4 17.7 0.00 0.00 0.00 84 1015.8
20260902130513 25 211 0.0 0.0 0.00 0.00 0.00 84 1013.8
20260902130119 25 211 0.0 0.0 0.00 0.00 0.00 85 1013.7
20260902130105 25 225 6.4 12.9 0.00 0.00 0.00 84 1015.9
20260902125602 25 213 6.4 12.9 0.00 0.00 0.00 85 1015.9
20260902125512 25 203 0.0 0.0 0.00 0.00 0.00 86 1014.0
20260902125103 25 232 6.4 16.1 0.00 0.00 0.00 86 1016.0
20260902125011 25 202 0.0 0.0 0.00 0.00 0.00 86 1013.9
20260902124603 25 212 6.4 16.1 0.00 0.00 0.00 86 1015.9
20260902124515 25 192 0.0 0.0 0.00 0.00 0.00 87 1013.9
20260902124115 25 203 0.0 0.0 0.00 0.00 0.00 87 1013.9
20260902124100 25 208 6.4 14.5 0.00 0.00 0.00 87 1015.9
20260902123600 25 191 4.8 11.3 0.00 0.00 0.00 87 1015.9
20260902123503 25 207 0.0 0.0 0.00 0.00 0.00 87 1013.8
20260902123105 24 202 6.4 11.3 0.00 0.00 0.00 87 1015.9
20260902123004 24 206 0.0 0.0 0.00 0.00 0.00 87 1013.8
20260902122558 24 225 4.8 14.5 0.00 0.00 0.00 87 1015.9
20260902122502 24 207 0.0 0.0 0.00 0.00 0.00 88 1013.8
20260902122100 24 209 4.8 14.5 0.00 0.00 0.00 88 1015.8
20260902122059 24 207 0.0 0.0 0.00 0.00 0.00 88 1013.8
20260902121611 24 207 0.0 0.0 0.00 0.00 0.00 89 1013.7
20260902121606 24 177 3.2 16.1 0.00 0.00 0.00 88 1015.9
20260902121100 24 210 3.2 16.1 0.00 0.00 0.00 89 1015.8
20260902121057 24 207 0.0 0.0 0.00 0.00 0.00 89 1013.8
20260902120600 23 219 3.2 11.3 0.00 0.00 0.00 89 1015.8
20260902120556 23 207 0.0 0.0 0.00 0.00 0.00 89 1013.7
20260902120106 23 207 0.0 0.0 0.00 0.00 0.00 89 1013.8
20260902115600 23 208 3.2 9.7 0.00 0.00 0.00 88 1015.8
20260902115555 23 207 0.0 0.0 0.00 0.00 0.00 89 1013.7
20260902115104 23 212 4.8 9.7 0.00 0.00 0.00 89 1015.8
20260902115054 23 207 0.0 0.0 0.00 0.00 0.00 89 1013.7
20260902114612 23 207 0.0 0.0 0.00 0.00 0.00 89 1013.6
20260902114603 23 203 3.2 12.9 0.00 0.00 0.00 89 1015.7
20260902114059 23 240 3.2 12.9 0.00 0.00 0.00 89 1015.6
20260902114053 23 207 0.0 0.0 0.00 0.00 0.00 89 1013.5
20260902113559 23 243 3.2 12.9 0.00 0.00 0.00 89 1015.6
20260902113553 23 207 0.0 0.0 0.00 0.00 0.00 90 1013.4
20260902113151 23 207 0.0 0.0 0.00 0.00 0.00 90 1013.3
20260902113115 23 234 4.8 12.9 0.00 0.00 0.00 89 1015.4
20260902112600 23 232 4.8 12.9 0.00 0.00 0.00 89 1015.4
20260902112551 23 207 0.0 0.0 0.00 0.00 0.00 90 1013.2
20260902112100 23 219 4.8 12.9 0.00 0.00 0.00 89 1015.4
20260902112049 23 207 0.0 0.0 0.00 0.00 0.00 90 1013.2
20260902111605 23 239 6.4 12.9 0.00 0.00 0.00 89 1015.3
20260902111558 23 207 0.0 0.0 0.00 0.00 0.00 90 1013.2
20260902111100 23 252 4.8 14.5 0.00 0.00 0.00 89 1015.3
20260902111048 23 207 0.0 0.0 0.00 0.00 0.00 90 1013.2
20260902110601 23 227 4.8 14.5 0.00 0.00 0.00 89 1015.4
20260902110548 23 207 0.0 0.0 0.00 0.00 0.00 90 1013.2
20260902110104 23 243 3.2 14.5 0.00 0.00 0.00 89 1015.4
20260902110052 23 207 0.0 0.0 0.00 0.00 0.00 90 1013.3
20260902105600 23 252 6.4 14.5 0.00 0.00 0.00 89 1015.4
20260902105547 23 207 0.0 0.0 0.00 0.00 0.00 90 1013.2
20260902105102 23 223 3.2 14.5 0.00 0.00 0.00 89 1015.4
20260902105047 23 207 0.0 0.0 0.00 0.00 0.00 90 1013.2
20260902104605 23 236 4.8 14.5 0.00 0.00 0.00 89 1015.3
20260902104547 23 207 0.0 0.0 0.00 0.00 0.00 89 1013.3
20260902104059 23 202 4.8 11.3 0.00 0.00 0.00 88 1015.3
20260902104050 23 207 0.0 0.0 0.00 0.00 0.00 89 1013.2
20260902103600 24 220 4.8 19.3 0.00 0.00 0.00 88 1015.4
20260902103552 24 207 0.0 0.0 0.00 0.00 0.00 89 1013.2
20260902103104 24 225 6.4 19.3 0.00 0.00 0.00 88 1015.5
20260902103100 24 207 0.0 0.0 0.00 0.00 0.00 89 1013.3
20260902102559 23 229 6.4 11.3 0.00 0.00 0.00 89 1015.4
20260902102547 23 194 0.0 0.0 0.00 0.00 0.00 89 1013.3
20260902102100 23 234 4.8 12.9 0.00 0.00 0.00 89 1015.4
20260902102046 23 194 0.0 0.0 0.00 0.00 0.00 89 1013.3
20260902101623 23 222 4.8 12.9 0.00 0.00 0.00 89 1015.4
20260902101546 23 188 0.0 0.0 0.00 0.00 0.00 90 1013.3
20260902101100 23 215 4.8 12.9 0.00 0.00 0.00 89 1015.4
20260902101045 23 188 0.0 0.0 0.00 0.00 0.00 90 1013.3
20260902100559 23 223 3.2 11.3 0.00 0.00 0.00 89 1015.5
20260902100550 23 185 0.0 0.0 0.00 0.00 0.00 90 1013.3
20260902100105 23 228 6.4 11.3 0.00 0.00 0.00 89 1015.5
20260902100046 23 179 0.0 0.0 0.00 0.00 0.00 90 1013.4
20260902095600 23 198 4.8 9.7 0.00 0.00 0.00 90 1015.5
20260902095546 23 179 0.0 0.0 0.00 0.00 0.00 90 1013.4
20260902095058 23 198 3.2 9.7 0.00 0.00 0.00 90 1015.5
20260902095048 23 179 0.0 0.0 0.00 0.00 0.00 90 1013.4
20260902094602 23 209 3.2 11.3 0.00 0.00 0.00 89 1015.5
20260902094549 23 179 0.0 0.0 0.00 0.00 0.00 90 1013.4
20260902094100 23 223 1.6 11.3 0.00 0.00 0.00 89 1015.5
20260902094046 23 179 0.0 0.0 0.00 0.00 0.00 90 1013.3
20260902093558 23 212 4.8 11.3 0.00 0.00 0.00 89 1015.4
20260902093544 23 179 0.0 0.0 0.00 0.00 0.00 90 1013.4
20260902093102 23 222 6.4 11.3 0.00 0.00 0.00 90 1015.4
20260902093044 23 179 0.0 0.0 0.00 0.00 0.00 90 1013.1
20260902092559 23 200 4.8 9.7 0.00 0.00 0.00 90 1015.4
20260902092544 23 179 0.0 0.0 0.00 0.00 0.00 90 1013.1
20260902092104 23 209 4.8 12.9 0.00 0.00 0.00 89 1015.5
20260902092044 23 179 0.0 0.0 0.00 0.00 0.00 90 1013.3
20260902091606 23 194 4.8 12.9 0.00 0.00 0.00 89 1015.5
20260902091552 23 179 0.0 0.0 0.00 0.00 0.00 90 1013.3
20260902091059 23 194 4.8 12.9 0.00 0.00 0.00 89 1015.5
20260902091043 23 179 0.0 0.0 0.00 0.00 0.00 90 1013.3
20260902090603 23 207 6.4 12.9 0.00 0.00 0.00 90 1015.6
20260902090543 23 179 0.0 0.0 0.00 0.00 0.00 90 1013.3
20260902090127 23 205 6.4 11.3 0.00 0.00 0.00 90 1015.5
20260902090053 23 179 0.0 0.0 0.00 0.00 0.00 90 1013.1
20260902085603 23 199 4.8 12.9 0.00 0.00 0.00 90 1015.5
20260902085542 23 179 0.0 0.0 0.00 0.00 0.00 90 1013.1
20260902085100 23 207 6.4 12.9 0.00 0.00 0.00 90 1015.4
20260902085042 23 179 0.0 0.0 0.00 0.00 0.00 90 1013.2
20260902084604 23 194 8.0 11.3 0.00 0.00 0.00 90 1015.4
20260902084541 23 179 0.0 0.0 0.00 0.00 0.00 90 1013.2
20260902084101 23 194 6.4 11.3 0.00 0.00 0.00 90 1015.3
20260902084043 23 179 0.0 0.0 0.00 0.00 0.00 90 1013.2
20260902083600 23 192 4.8 9.7 0.00 0.00 0.00 90 1015.4
20260902083542 23 179 0.0 0.0 0.00 0.00 0.00 90 1013.2
20260902083110 23 198 3.2 8.0 0.00 0.00 0.00 90 1015.4
20260902083045 23 179 0.0 0.0 0.00 0.00 0.00 90 1013.3
20260902082636 24 194 3.2 8.0 0.00 0.00 0.00 90 1015.4
20260902082540 23 179 0.0 0.0 0.00 0.00 0.00 90 1013.3
20260902082059 24 200 4.8 8.0 0.00 0.00 0.00 90 1015.5
20260902082039 24 179 0.0 0.0 0.00 0.00 0.00 90 1013.3
20260902081605 23 192 3.2 8.0 0.00 0.00 0.00 90 1015.4
20260902081541 23 178 0.0 0.0 0.00 0.00 0.00 91 1013.2
20260902081059 23 195 4.8 8.0 0.00 0.00 0.00 90 1015.4
20260902081037 23 178 0.0 0.0 0.00 0.00 0.00 91 1013.2
20260902080558 23 186 3.2 6.4 0.00 0.00 0.00 90 1015.5
20260902080537 23 178 0.0 0.0 0.00 0.00 0.00 91 1013.2
20260902080116 23 186 1.6 6.4 0.00 0.00 0.00 90 1015.5
20260902080037 23 178 0.0 0.0 0.00 0.00 0.00 91 1013.2
20260902075602 23 201 3.2 6.4 0.00 0.00 0.00 91 1015.5
20260902075536 23 178 0.0 0.0 0.00 0.00 0.00 91 1013.2
20260902075058 23 186 1.6 6.4 0.00 0.00 0.00 90 1015.5
20260902075036 23 178 0.0 0.0 0.00 0.00 0.00 91 1013.2
20260902074611 23 190 3.2 6.4 0.00 0.00 0.00 89 1015.5
20260902074548 23 178 0.0 0.0 0.00 0.00 0.00 90 1013.2
20260902074100 24 175 1.6 8.0 0.00 0.00 0.00 90 1015.3
20260902074035 24 178 0.0 0.0 0.00 0.00 0.00 90 1012.9
20260902073559 24 188 3.2 8.0 0.00 0.00 0.00 90 1015.3
20260902073533 24 178 0.0 0.0 0.00 0.00 0.00 90 1012.9
20260902073103 24 174 3.2 8.0 0.00 0.00 0.00 90 1015.2
20260902073034 24 178 0.0 0.0 0.00 0.00 0.00 90 1012.8
20260902072600 24 179 1.6 8.0 0.00 0.00 0.00 90 1015.2
20260902072532 24 178 0.0 0.0 0.00 0.00 0.00 90 1012.8
20260902072101 24 155 3.2 9.7 0.00 0.00 0.00 90 1015.1
20260902072029 24 179 0.0 0.0 0.00 0.00 0.00 90 1012.8
20260902071605 24 169 1.6 9.7 0.00 0.00 0.00 90 1015.1
20260902071528 24 179 0.0 0.0 0.00 0.00 0.00 90 1012.8
20260902071058 23 189 3.2 8.0 0.00 0.00 0.00 90 1015.3
20260902071027 23 179 0.0 0.0 0.00 0.00 0.00 90 1012.8
20260902070557 23 151 3.2 8.0 0.00 0.00 0.00 90 1015.1
20260902070527 23 178 0.0 0.0 0.00 0.00 0.00 90 1012.7
20260902070106 23 171 3.2 8.0 0.00 0.00 0.00 90 1015.3
20260902070026 23 178 0.0 0.0 0.00 0.00 0.00 90 1012.9
20260902065558 23 152 0.0 8.0 0.00 0.00 0.00 90 1015.4
20260902065526 23 178 0.0 0.0 0.00 0.00 0.00 90 1012.9
20260902065102 23 159 3.2 8.0 0.00 0.00 0.00 89 1015.4
20260902065026 23 178 0.0 0.0 0.00 0.00 0.00 90 1012.9
20260902064608 23 148 3.2 8.0 0.00 0.00 0.00 89 1015.3
20260902064532 23 178 0.0 0.0 0.00 0.00 0.00 90 1012.8
20260902064100 23 169 3.2 8.0 0.00 0.00 0.00 89 1015.1
20260902064026 23 178 0.0 0.0 0.00 0.00 0.00 89 1012.8
20260902063600 23 169 0.0 3.2 0.00 0.00 0.00 89 1015.3
20260902063524 23 217 0.0 0.0 0.00 0.00 0.00 89 1012.8
20260902063102 23 168 0.0 4.8 0.00 0.00 0.00 89 1015.3
20260902063025 23 217 0.0 0.0 0.00 0.00 0.00 89 1012.9
20260902062600 23 0 1.6 4.8 0.00 0.00 0.00 89 1015.4
20260902062525 23 217 0.0 0.0 0.00 0.00 0.00 89 1012.9
20260902062058 23 0 0.0 6.4 0.00 0.00 0.00 88 1015.4
20260902062023 23 217 0.0 0.0 0.00 0.00 0.00 89 1013.0
20260902061625 23 163 1.6 6.4 0.00 0.00 0.00 88 1015.4
20260902061537 23 217 0.0 0.0 0.00 0.00 0.00 89 1013.0
20260902061104 23 0 0.0 3.2 0.00 0.00 0.00 88 1015.5
20260902061024 23 217 0.0 0.0 0.00 0.00 0.00 89 1013.1
20260902060558 23 165 0.0 3.2 0.00 0.00 0.00 88 1015.5
20260902060523 23 217 0.0 0.0 0.00 0.00 0.00 89 1013.2
20260902060106 23 165 0.0 3.2 0.00 0.00 0.00 89 1015.5
20260902060027 23 217 0.0 0.0 0.00 0.00 0.00 89 1013.2
20260902055600 23 165 0.0 3.2 0.00 0.00 0.00 88 1015.5
20260902055526 23 217 0.0 0.0 0.00 0.00 0.00 89 1013.2
20260902055100 23 0 0.0 3.2 0.00 0.00 0.00 89 1015.6
20260902055022 23 217 0.0 0.0 0.00 0.00 0.00 90 1013.3
20260902054606 23 165 0.0 3.2 0.00 0.00 0.00 88 1015.6
20260902054535 23 217 0.0 0.0 0.00 0.00 0.00 89 1013.3
20260902054058 23 0 0.0 6.4 0.00 0.00 0.00 88 1015.8
20260902054026 23 217 0.0 0.0 0.00 0.00 0.00 88 1013.4
20260902053600 23 0 0.0 6.4 0.00 0.00 0.00 88 1015.7
20260902053521 23 217 0.0 0.0 0.00 0.00 0.00 89 1013.4
20260902053105 22 156 0.0 3.2 0.00 0.00 0.00 90 1015.7
20260902053023 22 217 0.0 0.0 0.00 0.00 0.00 90 1013.4
20260902052559 22 181 0.0 1.6 0.00 0.00 0.00 90 1015.7
20260902052520 22 217 0.0 0.0 0.00 0.00 0.00 90 1013.4
20260902052103 22 0 0.0 0.0 0.00 0.00 0.00 90 1015.7
20260902052021 22 217 0.0 0.0 0.00 0.00 0.00 90 1013.3
20260902051604 22 0 0.0 1.6 0.00 0.00 0.00 88 1015.7
20260902051519 22 217 0.0 0.0 0.00 0.00 0.00 89 1013.4
20260902051057 22 0 0.0 1.6 0.00 0.00 0.00 88 1015.6
20260902051017 22 217 0.0 0.0 0.00 0.00 0.00 88 1013.3
20260902050559 22 0 0.0 1.6 0.00 0.00 0.00 88 1015.7
20260902050517 22 217 0.0 0.0 0.00 0.00 0.00 89 1013.3
20260902050107 22 0 0.0 1.6 0.00 0.00 0.00 88 1015.6
20260902050017 22 217 0.0 0.0 0.00 0.00 0.00 89 1013.3
20260902045601 22 0 0.0 1.6 0.00 0.00 0.00 87 1015.6
20260902045516 22 218 0.0 0.0 0.00 0.00 0.00 88 1013.2
20260902045100 22 0 0.0 1.6 0.00 0.00 0.00 88 1015.6
20260902045015 22 218 0.0 0.0 0.00 0.00 0.00 89 1013.2
20260902044608 22 0 0.0 0.0 0.00 0.00 0.00 87 1015.7
20260902044515 22 218 0.0 0.0 0.00 0.00 0.00 88 1013.2
20260902044058 22 0 0.0 0.0 0.00 0.00 0.00 87 1015.5